[[{"header":{"parameterUnit":"m.s-1","parameterCategory":1,"la1":30.2991,"la2":30.254,"lo1":-89.0895,"lo2":-89.0444,"dy":0.0017,"dx":0.0017,"nx":28,"ny":28,"refTime":"2024-04-02T03:00:00:Z","depth":0,"parameterNumber":2,"parameterNumberName":"U-component_of_WINDS"},"data":[0,0,0,0,0,0,0,0,0,0,0,0,0,0,0,0,0,0,0,0,0,0,0,0,0,0,0,0,0,0,0,0,0,0,0,0,0,0,0,0,0,0,0,0,0,0,0,0,0,0,0,0,0,0,0,0,0,0,6.9743,6.9743,0,6.9763,6.9764,6.9764,6.9653,6.965,6.9647,6.9644,6.9663,6.9667,6.967,0,0,0,0,0,0,0,0,0,0,0,0,0,6.9605,6.9608,6.9742,6.9743,6.9743,6.9763,6.9764,6.9764,6.9654,6.965,6.9646,6.9643,6.9662,6.9666,6.967,0,0,0,0,0,0,0,0,0,0,0,0,0,6.965,6.9609,6.9742,6.9691,6.9686,6.9763,6.9764,6.9764,6.9655,6.965,6.9645,6.9641,6.9661,6.9666,6.9671,6.9798,0,0,6.9687,6.9689,0,0,0,0,0,0,0,0,6.9647,6.9655,6.9698,6.9694,6.969,6.9701,6.9722,6.9775,6.9656,6.9667,6.9644,6.9638,6.968,6.9683,6.9697,6.9799,6.98,6.9687,6.9691,6.9693,6.9694,0,0,0,0,0,0,0,6.9644,6.9653,6.9751,6.9699,6.9694,6.9666,6.9667,6.9732,6.9699,6.9665,6.9657,6.9662,6.9676,6.9692,6.9697,6.98,6.9687,6.9692,6.9695,6.9697,7.0008,7.0013,0,0,0,0,0,0,6.9648,6.9651,6.975,6.9751,6.9656,6.9672,6.9673,6.9702,6.9698,6.9693,6.9666,6.9656,6.9686,6.9691,6.9697,6.9846,6.9693,6.9698,6.9701,7.0003,7.0009,7.0015,0,0,0,0,0,0,6.9646,6.9658,6.9749,6.9699,6.9709,6.968,6.9713,6.9705,6.9721,6.9699,6.9692,6.9688,6.9682,6.969,6.9774,6.9845,6.97,6.9705,6.9997,7.0005,7.0012,7.0146,0,0,0,0,0,0,6.9642,6.9658,6.9706,6.9701,6.9712,6.9827,6.9717,6.9709,6.9731,6.9719,6.9718,6.9713,6.9679,6.9767,6.9779,6.985,6.9709,6.999,7.0001,7.001,7.0135,7.0157,7.0176,0,0,0,0,0,6.9638,6.9742,6.9709,6.9722,6.9772,6.9831,6.9837,6.9796,6.9737,6.9785,6.9771,6.9713,6.9836,6.9777,6.979,6.9863,6.9986,6.9998,7.0009,7.0125,7.0153,7.0175,0,0,0,0,0,0,6.9756,6.9741,6.9704,6.981,6.9823,6.9812,6.9872,6.9826,6.9855,6.9843,6.979,6.9791,6.9885,6.9882,6.9816,6.9986,6.99,6.9915,6.9984,7.001,7.003,7.0029,6.9713,0,0,0,0,0,6.9794,6.9844,6.9828,6.9923,6.9932,6.9902,6.9926,6.9893,6.9904,6.9908,6.99,6.9912,6.9953,6.9981,7.0018,7.0134,7.0132,7.019,7.0211,7.0228,7.0242,7.0303,7.0329,7.0053,7.0053,7.0053,0,0,6.9874,6.9872,6.9907,6.9947,6.9953,7.0006,6.9906,6.9966,7.0005,6.9917,6.9997,6.9992,7.0001,7.0103,7.0146,7.0103,7.0317,7.0243,7.0257,7.0261,7.0318,7.0344,7.0367,7.0061,7.0059,7.0058,0,0,7.0046,7.005,7.013,7.0139,7.0149,7.0129,7.0148,7.0145,7.0138,7.0218,7.0153,7.0198,7.027,7.028,7.0294,7.0472,7.042,7.0485,7.0593,7.0654,7.0675,7.0694,7.0758,7.0781,7.0499,7.0499,7.0499,0,7.0144,7.0221,7.0177,7.0241,7.0261,7.0186,7.0266,7.0276,7.0299,7.0314,7.0265,7.0354,7.0355,7.0458,7.0502,7.0516,7.0536,7.0485,7.0676,7.0695,7.0712,7.0772,7.0796,7.0507,7.0506,7.0505,7.0504,0,7.0341,7.0396,7.0459,7.0484,7.051,7.0583,7.0549,7.0581,7.0547,7.0531,7.0613,7.0612,7.0648,7.067,7.0636,7.0768,7.0741,7.0685,7.0598,7.0747,7.0802,7.0825,7.0518,7.0515,7.0513,7.0511,0,0,7.0587,7.0587,7.0611,7.0622,7.0629,7.067,7.0739,7.0775,7.0804,7.0822,7.0878,7.0942,7.089,7.0907,7.0874,7.0927,7.1069,7.0865,7.0864,7.0903,7.1214,7.1256,7.1284,7.1035,7.1039,7.1042,7.1213,0,7.0756,7.0875,7.0837,7.0957,7.1008,7.0937,7.0997,7.1008,7.0995,7.1035,7.1021,7.1067,7.0995,7.1005,7.1055,7.1041,7.113,7.1028,7.1086,7.1089,7.1086,7.1313,7.1357,7.1519,7.1235,7.1239,7.1241,0,7.0969,7.0997,7.1123,7.1122,7.1142,7.1197,7.1227,7.1266,7.1277,7.1264,7.1284,7.1239,7.1306,7.122,7.1312,7.1243,7.1264,7.1262,7.1267,7.127,7.1174,7.1323,7.1569,7.1594,7.1275,7.1272,7.127,0,7.1137,7.1206,7.129,7.1301,7.1303,7.1343,7.1345,7.1351,7.1375,7.1401,7.1416,7.145,7.1468,7.1495,7.1461,7.1401,7.1558,7.1468,7.1549,7.155,7.1585,7.1583,7.1839,7.1599,7.1599,7.1598,7.1598,0,7.133,7.141,7.1366,7.1418,7.1505,7.146,7.1548,7.1542,7.1548,7.1597,7.1537,7.1585,7.1537,7.158,7.1553,7.1634,7.1642,7.1633,7.1625,7.1639,7.164,7.1652,7.164,7.1605,7.1603,7.1602,7.1601,0,7.1532,7.1506,7.1593,7.1588,7.1588,7.1653,7.1648,7.1695,7.1679,7.1742,7.1754,7.1728,7.1775,7.1744,7.1791,7.1773,7.1878,7.1855,7.1875,7.1869,7.1952,7.1944,7.2224,7.2258,7.1997,7.1999,7.2002,0,7.1657,7.1717,7.1719,7.1748,7.1755,7.1802,7.1827,7.1785,7.1813,7.1831,7.1876,7.1919,7.195,7.2029,7.2014,7.205,7.2026,7.2122,7.2031,7.2043,7.2028,7.2025,7.2031,7.214,7.2143,7.2146,7.2148,0,7.1882,7.1866,7.1905,7.194,7.1971,7.1996,7.2016,7.2043,7.2001,7.2036,7.2084,7.2109,7.2157,7.22,7.223,7.2231,7.2183,7.2177,7.2197,7.2211,7.2221,7.2217,7.1925,7.217,7.2168,7.2166,7.2165,7.2164,7.2049,7.2099,7.2109,7.2154,7.2165,7.2185,7.223,7.2219,7.2259,7.2296,7.2269,7.2327,7.2336,7.2371,7.2379,7.2423,7.2384,7.2414,7.2421,7.2429,7.2441,7.2214,7.2428,7.2427,7.2427,7.2426,7.2426,0,7.2271,7.2274,7.2316,7.2347,7.2382,7.2334,7.2354,7.2387,7.2438,7.2451,7.2484,7.254,7.2581,7.257,7.2607,7.2644,7.2623,7.2655,7.2652,7.2653,7.2473,7.2452,7.2672,7.2672,7.2672,7.2672,7.2671,7.2671,7.2391,7.2474,7.2459,7.2547,7.2548,7.2605,7.2621,7.2639,7.2649,7.2714,7.2749,7.2741,7.2745,7.2781,7.2817,7.2813,7.2829,7.287,7.2857,7.269,7.2666,7.2642,7.2622,7.2874,7.2874,7.3033,7.3034,7.3036]},{"header":{"parameterUnit":"m.s-1","parameterCategory":1,"la1":30.2991,"la2":30.254,"lo1":-89.0895,"lo2":-89.0444,"dy":0.0017,"dx":0.0017,"nx":28,"ny":28,"refTime":"2024-04-02T03:00:00:Z","depth":0,"parameterNumber":3,"parameterNumberName":"V-component_of_WINDS"},"data":[0,0,0,0,0,0,0,0,0,0,0,0,0,0,0,0,0,0,0,0,0,0,0,0,0,0,0,0,0,0,0,0,0,0,0,0,0,0,0,0,0,0,0,0,0,0,0,0,0,0,0,0,0,0,0,0,0,0,-3.5652,-3.5651,0,-3.5534,-3.5533,-3.5531,-3.5462,-3.5461,-3.5461,-3.5461,-3.5336,-3.5333,-3.533,0,0,0,0,0,0,0,0,0,0,0,0,0,-3.5814,-3.5811,-3.5652,-3.5651,-3.5649,-3.5534,-3.5533,-3.5531,-3.5462,-3.5461,-3.5461,-3.5461,-3.5337,-3.5334,-3.533,0,0,0,0,0,0,0,0,0,0,0,0,0,-3.5724,-3.581,-3.5653,-3.5601,-3.5595,-3.5535,-3.5533,-3.5531,-3.5462,-3.5461,-3.5461,-3.546,-3.5338,-3.5334,-3.5329,-3.531,0,0,-3.5315,-3.5313,0,0,0,0,0,0,0,0,-3.5729,-3.5718,-3.561,-3.5604,-3.5598,-3.5512,-3.5544,-3.5456,-3.5462,-3.5512,-3.5461,-3.546,-3.5395,-3.5386,-3.5364,-3.5304,-3.5299,-3.5315,-3.5312,-3.531,-3.5309,0,0,0,0,0,0,0,-3.5736,-3.5723,-3.5605,-3.5609,-3.5601,-3.5582,-3.5569,-3.5527,-3.5457,-3.5508,-3.5503,-3.549,-3.5391,-3.5369,-3.5361,-3.5297,-3.5315,-3.5311,-3.5308,-3.5307,-3.5213,-3.5213,0,0,0,0,0,0,-3.5751,-3.5729,-3.5609,-3.5602,-3.5664,-3.558,-3.5565,-3.554,-3.5458,-3.5445,-3.549,-3.5487,-3.5377,-3.5366,-3.5356,-3.5326,-3.531,-3.5306,-3.5303,-3.5212,-3.5213,-3.5213,0,0,0,0,0,0,-3.5754,-3.5741,-3.5614,-3.5664,-3.5646,-3.5577,-3.555,-3.5538,-3.5515,-3.5444,-3.5431,-3.548,-3.5376,-3.5363,-3.5322,-3.5321,-3.5304,-3.53,-3.5212,-3.5213,-3.5213,-3.5268,0,0,0,0,0,0,-3.5759,-3.5742,-3.5735,-3.5664,-3.5644,-3.5583,-3.555,-3.5536,-3.5508,-3.5503,-3.5431,-3.5419,-3.5375,-3.5329,-3.5317,-3.5315,-3.5296,-3.5212,-3.5212,-3.5213,-3.5266,-3.527,-3.5274,0,0,0,0,0,-3.5765,-3.5755,-3.5735,-3.5721,-3.5634,-3.5583,-3.5571,-3.5521,-3.5508,-3.55,-3.5454,-3.5421,-3.5324,-3.5325,-3.5312,-3.5308,-3.5212,-3.5212,-3.5213,-3.5264,-3.5269,-3.5274,0,0,0,0,0,0,-3.5827,-3.5745,-3.5722,-3.5689,-3.5644,-3.5571,-3.5559,-3.5529,-3.5485,-3.5482,-3.5421,-3.5405,-3.537,-3.5335,-3.5338,-3.5283,-3.5264,-3.5262,-3.5308,-3.5312,-3.5316,-3.5324,-3.5293,0,0,0,0,0,-3.5837,-3.5804,-3.5734,-3.5711,-3.569,-3.5629,-3.5605,-3.557,-3.552,-3.55,-3.5451,-3.5403,-3.5361,-3.5335,-3.5292,-3.5261,-3.5243,-3.5251,-3.5255,-3.5259,-3.5257,-3.5236,-3.5238,-3.5215,-3.5215,-3.5215,0,0,-3.5857,-3.5808,-3.5791,-3.5722,-3.5683,-3.5648,-3.5613,-3.5578,-3.5551,-3.5494,-3.5453,-3.5415,-3.5357,-3.5321,-3.5302,-3.529,-3.526,-3.526,-3.5263,-3.5259,-3.5237,-3.5239,-3.5241,-3.5215,-3.5215,-3.5215,0,0,-3.5875,-3.5836,-3.5812,-3.5773,-3.5715,-3.5674,-3.5669,-3.5601,-3.5574,-3.5531,-3.5488,-3.5454,-3.5384,-3.5344,-3.5314,-3.5317,-3.5285,-3.5305,-3.5325,-3.5305,-3.5307,-3.5308,-3.5308,-3.5308,-3.5304,-3.5304,-3.5304,0,-3.5906,-3.5854,-3.5803,-3.5771,-3.5741,-3.5689,-3.5663,-3.5628,-3.5558,-3.5538,-3.5527,-3.5436,-3.5394,-3.5346,-3.5347,-3.5325,-3.5315,-3.5312,-3.5311,-3.5312,-3.5312,-3.5311,-3.5311,-3.5307,-3.5306,-3.5306,-3.5306,0,-3.5895,-3.5859,-3.5847,-3.5782,-3.5751,-3.5722,-3.5665,-3.5639,-3.5608,-3.5568,-3.5524,-3.5471,-3.5417,-3.5403,-3.5371,-3.535,-3.5345,-3.5323,-3.5302,-3.5318,-3.5316,-3.5315,-3.531,-3.5309,-3.5309,-3.5308,0,0,-3.5948,-3.5855,-3.5851,-3.582,-3.5752,-3.5722,-3.569,-3.5638,-3.5616,-3.557,-3.5541,-3.5482,-3.5461,-3.5428,-3.5391,-3.5374,-3.5377,-3.5354,-3.5351,-3.5359,-3.5349,-3.5365,-3.5365,-3.5356,-3.5356,-3.5356,-3.5353,0,-3.5955,-3.5896,-3.5849,-3.5808,-3.5773,-3.5723,-3.5695,-3.5649,-3.5611,-3.5575,-3.5532,-3.5491,-3.5467,-3.5447,-3.5428,-3.5381,-3.5374,-3.5381,-3.5326,-3.5325,-3.5341,-3.5364,-3.538,-3.5381,-3.5352,-3.5352,-3.5352,0,-3.5955,-3.5911,-3.5867,-3.5801,-3.5784,-3.576,-3.5707,-3.5674,-3.562,-3.5594,-3.5557,-3.5518,-3.5481,-3.5465,-3.5411,-3.5416,-3.5391,-3.5365,-3.5364,-3.5355,-3.5338,-3.5355,-3.538,-3.5379,-3.535,-3.535,-3.535,0,-3.5996,-3.5926,-3.589,-3.5865,-3.5788,-3.5772,-3.5738,-3.5684,-3.5655,-3.5609,-3.5589,-3.5539,-3.5511,-3.5473,-3.5422,-3.5415,-3.5373,-3.5352,-3.5348,-3.5349,-3.534,-3.5341,-3.536,-3.5327,-3.5327,-3.5327,-3.5327,0,-3.6008,-3.5982,-3.5907,-3.5885,-3.5854,-3.5799,-3.577,-3.5732,-3.5684,-3.5652,-3.5606,-3.5577,-3.5512,-3.5474,-3.5434,-3.5395,-3.5383,-3.5359,-3.5348,-3.5362,-3.5365,-3.5344,-3.5342,-3.5327,-3.5327,-3.5327,-3.5327,0,-3.6048,-3.5997,-3.5954,-3.5885,-3.5866,-3.5846,-3.5786,-3.5761,-3.5721,-3.5681,-3.5669,-3.5605,-3.5558,-3.5503,-3.5439,-3.5412,-3.5375,-3.536,-3.5394,-3.5387,-3.5385,-3.5385,-3.539,-3.5387,-3.5358,-3.5358,-3.5358,0,-3.6058,-3.6037,-3.5965,-3.5941,-3.591,-3.5872,-3.5842,-3.5787,-3.5758,-3.5694,-3.5677,-3.5627,-3.5584,-3.5512,-3.5459,-3.5409,-3.5391,-3.5396,-3.5383,-3.5398,-3.5389,-3.5391,-3.5387,-3.5399,-3.54,-3.54,-3.5401,0,-3.6081,-3.6057,-3.6017,-3.5967,-3.5933,-3.5892,-3.5848,-3.583,-3.5766,-3.5735,-3.5688,-3.5655,-3.5589,-3.5539,-3.5482,-3.5446,-3.5412,-3.5406,-3.5401,-3.5415,-3.5434,-3.5422,-3.5401,-3.5405,-3.5405,-3.5405,-3.5404,-3.5404,-3.6105,-3.6083,-3.603,-3.5986,-3.5947,-3.5907,-3.588,-3.5837,-3.5797,-3.5739,-3.5709,-3.5662,-3.5607,-3.5527,-3.5492,-3.5453,-3.5442,-3.5436,-3.5435,-3.5434,-3.5437,-3.5442,-3.5443,-3.5443,-3.5443,-3.5442,-3.5442,0,-3.6124,-3.6087,-3.6047,-3.5988,-3.5953,-3.5926,-3.5875,-3.5847,-3.5807,-3.5759,-3.5718,-3.5662,-3.5614,-3.5557,-3.5505,-3.5484,-3.5467,-3.5472,-3.5472,-3.5464,-3.5451,-3.5459,-3.5487,-3.5487,-3.5487,-3.5487,-3.5487,-3.5487,-3.6129,-3.6091,-3.6061,-3.6002,-3.5964,-3.5918,-3.5892,-3.5854,-3.5816,-3.5756,-3.5716,-3.568,-3.5628,-3.5571,-3.5525,-3.5509,-3.5491,-3.5501,-3.548,-3.5469,-3.5465,-3.5462,-3.5469,-3.5498,-3.5498,-3.5496,-3.5496,-3.5496]}]]